Time,TemperatureF,DewpointF,PressureIn,WindDirection,WindDirectionDegrees,WindSpeedMPH,WindSpeedGustMPH,Humidity,HourlyPrecipIn,Conditions,Clouds,dailyrainin,SolarRadiationWatts/m^2,SoftwareType,DateUTC
2013-01-29 00:01:00,51.3,45.7,30.25,South,171,2.0,2.0,81,0.00,,---,0.00,0.00,VWS V14.00,2013-01-29 05:01:00,
2013-01-29 00:03:00,51.1,45.5,30.25,SW,223,2.0,3.0,81,0.00,,---,0.00,0.00,VWS V14.00,2013-01-29 05:03:00,
2013-01-29 00:08:00,51.0,45.4,30.25,SW,215,0.0,3.0,81,0.00,,---,0.00,0.00,VWS V14.00,2013-01-29 05:08:00,
2013-01-29 00:13:00,50.8,45.2,30.25,SW,215,0.0,3.0,81,0.00,,---,0.00,0.00,VWS V14.00,2013-01-29 05:13:00,
2013-01-29 00:18:00,50.7,45.4,30.25,WSW,238,0.0,5.0,82,0.00,,---,0.00,0.00,VWS V14.00,2013-01-29 05:18:00,
2013-01-29 00:23:00,50.5,45.2,30.25,WNW,294,0.0,5.0,82,0.00,,---,0.00,0.00,VWS V14.00,2013-01-29 05:23:00,
2013-01-29 00:28:00,50.4,45.1,30.25,SW,227,0.0,5.0,82,0.00,,---,0.00,0.00,VWS V14.00,2013-01-29 05:28:00,
2013-01-29 00:33:00,50.2,44.9,30.25,SW,236,0.0,2.0,82,0.00,,---,0.00,0.00,VWS V14.00,2013-01-29 05:33:00,
2013-01-29 00:38:00,50.1,44.8,30.25,WSW,245,0.0,2.0,82,0.00,,---,0.00,0.00,VWS V14.00,2013-01-29 05:38:00,
2013-01-29 00:43:00,49.9,44.6,30.25,SSW,194,0.0,2.0,82,0.00,,---,0.00,0.00,VWS V14.00,2013-01-29 05:43:00,
2013-01-29 00:48:00,49.8,44.5,30.24,SSW,194,0.0,2.0,82,0.00,,---,0.00,0.00,VWS V14.00,2013-01-29 05:48:00,
2013-01-29 00:53:00,49.6,44.3,30.25,West,275,0.0,3.0,82,0.00,,---,0.00,0.00,VWS V14.00,2013-01-29 05:53:00,
2013-01-29 00:58:00,49.5,44.2,30.24,West,275,0.0,3.0,82,0.00,,---,0.00,0.00,VWS V14.00,2013-01-29 05:58:00,
2013-01-29 01:03:00,49.2,44.3,30.24,SSE,161,0.0,1.0,83,0.00,,---,0.00,0.00,VWS V14.00,2013-01-29 06:03:00,
2013-01-29 01:08:00,49.1,44.2,30.24,SSE,161,0.0,1.0,83,0.00,,---,0.00,0.00,VWS V14.00,2013-01-29 06:08:00,
2013-01-29 01:13:00,48.8,43.9,30.24,SSE,161,0.0,1.0,83,0.00,,---,0.00,0.00,VWS V14.00,2013-01-29 06:13:00,
2013-01-29 01:18:00,48.6,43.7,30.24,SSE,161,0.0,1.0,83,0.00,,---,0.00,0.00,VWS V14.00,2013-01-29 06:18:00,
2013-01-29 01:23:00,48.3,43.4,30.24,SSE,161,0.0,1.0,83,0.00,,---,0.00,0.00,VWS V14.00,2013-01-29 06:23:00,
2013-01-29 01:28:00,48.2,43.6,30.24,SSE,161,1.0,1.0,84,0.00,,---,0.00,0.00,VWS V14.00,2013-01-29 06:28:00,
2013-01-29 01:33:00,47.9,43.3,30.24,SSE,161,0.0,0.0,84,0.00,,---,0.00,0.00,VWS V14.00,2013-01-29 06:33:00,
2013-01-29 01:38:00,47.6,43.3,30.24,SSE,161,0.0,1.0,85,0.00,,---,0.00,0.00,VWS V14.00,2013-01-29 06:38:00,
2013-01-29 01:43:00,47.4,43.1,30.24,SSE,161,0.0,1.0,85,0.00,,---,0.00,0.00,VWS V14.00,2013-01-29 06:43:00,
2013-01-29 01:48:00,47.3,43.3,30.24,SSE,161,0.0,1.0,86,0.00,,---,0.00,0.00,VWS V14.00,2013-01-29 06:48:00,
2013-01-29 01:53:00,47.1,43.1,30.24,SSE,161,0.0,1.0,86,0.00,,---,0.00,0.00,VWS V14.00,2013-01-29 06:53:00,
2013-01-29 01:58:00,47.0,43.0,30.24,SSE,161,0.0,1.0,86,0.00,,---,0.00,0.00,VWS V14.00,2013-01-29 06:58:00,
2013-01-29 02:03:00,47.0,43.0,30.24,SSE,161,0.0,0.0,86,0.00,,---,0.00,0.00,VWS V14.00,2013-01-29 07:03:00,
2013-01-29 02:08:00,46.8,43.1,30.23,SSE,161,1.0,1.0,87,0.00,,---,0.00,0.00,VWS V14.00,2013-01-29 07:08:00,
2013-01-29 02:13:00,46.8,43.1,30.23,SSE,161,1.0,2.0,87,0.00,,---,0.00,0.00,VWS V14.00,2013-01-29 07:13:00,
2013-01-29 02:18:00,46.8,43.1,30.24,SSW,202,1.0,4.0,87,0.00,,---,0.00,0.00,VWS V14.00,2013-01-29 07:18:00,
2013-01-29 02:23:00,46.8,43.1,30.23,South,188,2.0,4.0,87,0.00,,---,0.00,0.00,VWS V14.00,2013-01-29 07:23:00,
2013-01-29 02:28:00,46.8,43.1,30.23,South,180,0.0,4.0,87,0.00,,---,0.00,0.00,VWS V14.00,2013-01-29 07:28:00,
2013-01-29 02:33:00,47.0,43.3,30.23,SSW,194,2.0,5.0,87,0.00,,---,0.00,0.00,VWS V14.00,2013-01-29 07:33:00,
2013-01-29 02:38:00,47.0,43.3,30.23,SSW,192,2.0,5.0,87,0.00,,---,0.00,0.00,VWS V14.00,2013-01-29 07:38:00,
2013-01-29 02:43:00,47.1,43.4,30.23,WSW,243,1.0,5.0,87,0.00,,---,0.00,0.00,VWS V14.00,2013-01-29 07:43:00,
2013-01-29 02:48:00,47.1,43.1,30.23,SSW,211,0.0,5.0,86,0.00,,---,0.00,0.00,VWS V14.00,2013-01-29 07:48:00,
2013-01-29 02:53:00,47.1,43.1,30.22,SSW,197,3.0,5.0,86,0.00,,---,0.00,0.00,VWS V14.00,2013-01-29 07:53:00,
2013-01-29 02:58:00,47.1,43.1,30.22,South,191,3.0,5.0,86,0.00,,---,0.00,0.00,VWS V14.00,2013-01-29 07:58:00,
2013-01-29 03:03:00,47.3,43.3,30.22,SSW,201,0.0,4.0,86,0.00,,---,0.00,0.00,VWS V14.00,2013-01-29 08:03:00,
2013-01-29 03:08:00,47.3,43.3,30.22,South,182,2.0,4.0,86,0.00,,---,0.00,0.00,VWS V14.00,2013-01-29 08:08:00,
2013-01-29 03:13:00,47.3,43.3,30.23,SSW,208,0.0,4.0,86,0.00,,---,0.00,0.00,VWS V14.00,2013-01-29 08:13:00,
2013-01-29 03:18:00,47.1,43.1,30.23,SW,229,0.0,4.0,86,0.00,,---,0.00,0.00,VWS V14.00,2013-01-29 08:18:00,
2013-01-29 03:23:00,47.0,43.0,30.23,SW,229,1.0,4.0,86,0.00,,---,0.00,0.00,VWS V14.00,2013-01-29 08:23:00,
2013-01-29 03:28:00,46.8,42.8,30.22,SW,229,0.0,4.0,86,0.00,,---,0.00,0.00,VWS V14.00,2013-01-29 08:28:00,
2013-01-29 03:33:00,46.7,42.7,30.22,SSW,211,0.0,2.0,86,0.00,,---,0.00,0.00,VWS V14.00,2013-01-29 08:33:00,
2013-01-29 03:38:00,46.5,42.8,30.22,SSW,211,0.0,2.0,87,0.00,,---,0.00,0.00,VWS V14.00,2013-01-29 08:38:00,
2013-01-29 03:43:00,46.5,42.8,30.22,SSW,211,0.0,3.0,87,0.00,,---,0.00,0.00,VWS V14.00,2013-01-29 08:43:00,
2013-01-29 03:48:00,46.5,42.8,30.22,SSW,211,0.0,3.0,87,0.00,,---,0.00,0.00,VWS V14.00,2013-01-29 08:48:00,
2013-01-29 03:53:00,46.5,43.1,30.22,SSW,211,0.0,3.0,88,0.00,,---,0.00,0.00,VWS V14.00,2013-01-29 08:53:00,
2013-01-29 03:58:00,46.5,43.1,30.22,SSW,211,0.0,3.0,88,0.00,,---,0.00,0.00,VWS V14.00,2013-01-29 08:58:00,
2013-01-29 04:03:00,46.5,43.1,30.22,SSW,211,0.0,0.0,88,0.00,,---,0.00,0.00,VWS V14.00,2013-01-29 09:03:00,
2013-01-29 04:08:00,46.5,43.1,30.22,SSW,211,0.0,0.0,88,0.00,,---,0.00,0.00,VWS V14.00,2013-01-29 09:08:00,
2013-01-29 04:13:00,46.4,43.0,30.22,SSW,211,0.0,1.0,88,0.00,,---,0.00,0.00,VWS V14.00,2013-01-29 09:13:00,
2013-01-29 04:18:00,46.4,43.3,30.22,SSW,211,0.0,1.0,89,0.00,,---,0.00,0.00,VWS V14.00,2013-01-29 09:18:00,
2013-01-29 04:23:00,46.2,43.1,30.22,SSW,211,0.0,1.0,89,0.00,,---,0.00,0.00,VWS V14.00,2013-01-29 09:23:00,
2013-01-29 04:28:00,46.2,43.1,30.21,SSW,211,0.0,2.0,89,0.00,,---,0.00,0.00,VWS V14.00,2013-01-29 09:28:00,
2013-01-29 04:33:00,46.2,43.1,30.21,SSW,211,0.0,0.0,89,0.00,,---,0.00,0.00,VWS V14.00,2013-01-29 09:33:00,
2013-01-29 04:38:00,46.1,43.0,30.21,SSW,211,0.0,0.0,89,0.00,,---,0.00,0.00,VWS V14.00,2013-01-29 09:38:00,
2013-01-29 04:43:00,46.1,43.0,30.21,SSW,211,1.0,1.0,89,0.00,,---,0.00,0.00,VWS V14.00,2013-01-29 09:43:00,
2013-01-29 04:48:00,46.2,43.1,30.21,SSW,211,0.0,1.0,89,0.00,,---,0.00,0.00,VWS V14.00,2013-01-29 09:48:00,
2013-01-29 04:53:00,46.2,43.1,30.21,SSW,211,1.0,1.0,89,0.00,,---,0.00,0.00,VWS V14.00,2013-01-29 09:53:00,
2013-01-29 04:58:00,46.2,43.4,30.21,SSW,211,0.0,3.0,90,0.00,,---,0.00,0.00,VWS V14.00,2013-01-29 09:58:00,
2013-01-29 05:03:00,46.1,43.3,30.21,SSW,211,0.0,0.0,90,0.00,,---,0.00,0.00,VWS V14.00,2013-01-29 10:03:00,
2013-01-29 05:08:00,46.0,43.0,30.21,SSW,211,0.0,0.0,89,0.00,,---,0.00,0.00,VWS V14.00,2013-01-29 10:08:00,
2013-01-29 05:13:00,45.8,43.0,30.21,West,278,1.0,2.0,90,0.00,,---,0.00,0.00,VWS V14.00,2013-01-29 10:13:00,
2013-01-29 05:18:00,45.7,42.9,30.21,SW,223,0.0,4.0,90,0.00,,---,0.00,0.00,VWS V14.00,2013-01-29 10:18:00,
2013-01-29 05:23:00,45.7,42.9,30.21,South,186,0.0,4.0,90,0.00,,---,0.00,0.00,VWS V14.00,2013-01-29 10:23:00,
2013-01-29 05:28:00,45.8,43.3,30.21,South,186,0.0,4.0,91,0.00,,---,0.00,0.00,VWS V14.00,2013-01-29 10:28:00,
2013-01-29 05:33:00,46.0,43.5,30.21,South,186,0.0,0.0,91,0.00,,---,0.00,0.00,VWS V14.00,2013-01-29 10:33:00,
2013-01-29 05:38:00,45.8,43.3,30.21,South,186,0.0,0.0,91,0.00,,---,0.00,0.00,VWS V14.00,2013-01-29 10:38:00,
2013-01-29 05:43:00,45.8,43.3,30.22,South,186,0.0,0.0,91,0.00,,---,0.00,0.00,VWS V14.00,2013-01-29 10:43:00,
2013-01-29 05:48:00,45.5,42.7,30.22,South,186,0.0,0.0,90,0.00,,---,0.00,0.00,VWS V14.00,2013-01-29 10:48:00,
2013-01-29 05:53:00,45.4,42.9,30.22,South,186,1.0,2.0,91,0.00,,---,0.00,0.00,VWS V14.00,2013-01-29 10:53:00,
2013-01-29 05:58:00,45.2,42.7,30.22,South,186,0.0,2.0,91,0.00,,---,0.00,0.00,VWS V14.00,2013-01-29 10:58:00,
2013-01-29 06:03:00,45.2,42.7,30.22,South,186,0.0,1.0,91,0.00,,---,0.00,0.00,VWS V14.00,2013-01-29 11:03:00,
2013-01-29 06:08:00,45.1,42.6,30.22,South,186,1.0,1.0,91,0.00,,---,0.00,0.00,VWS V14.00,2013-01-29 11:08:00,
2013-01-29 06:13:00,45.1,42.9,30.22,South,186,1.0,1.0,92,0.00,,---,0.00,0.00,VWS V14.00,2013-01-29 11:13:00,
2013-01-29 06:18:00,45.1,42.9,30.22,South,186,0.0,1.0,92,0.00,,---,0.00,0.00,VWS V14.00,2013-01-29 11:18:00,
2013-01-29 06:23:00,45.2,43.0,30.22,South,186,0.0,2.0,92,0.00,,---,0.00,0.00,VWS V14.00,2013-01-29 11:23:00,
2013-01-29 06:28:00,45.4,43.2,30.22,South,186,0.0,2.0,92,0.00,,---,0.00,0.00,VWS V14.00,2013-01-29 11:28:00,
2013-01-29 06:33:00,45.4,43.2,30.22,South,186,0.0,0.0,92,0.00,,---,0.00,0.00,VWS V14.00,2013-01-29 11:33:00,
2013-01-29 06:38:00,45.2,43.0,30.22,South,186,0.0,0.0,92,0.00,,---,0.00,0.00,VWS V14.00,2013-01-29 11:38:00,
2013-01-29 06:43:00,45.2,43.0,30.22,South,186,0.0,0.0,92,0.00,,---,0.00,0.00,VWS V14.00,2013-01-29 11:43:00,
2013-01-29 06:48:00,45.2,43.0,30.22,South,186,1.0,2.0,92,0.00,,---,0.00,0.00,VWS V14.00,2013-01-29 11:48:00,
2013-01-29 06:53:00,45.4,43.2,30.22,South,186,0.0,2.0,92,0.00,,---,0.00,0.00,VWS V14.00,2013-01-29 11:53:00,
2013-01-29 06:58:00,45.4,43.5,30.22,West,277,0.0,2.0,93,0.00,,---,0.00,0.00,VWS V14.00,2013-01-29 11:58:00,
2013-01-29 07:03:00,45.4,43.5,30.23,West,278,0.0,0.0,93,0.00,,---,0.00,0.00,VWS V14.00,2013-01-29 12:03:00,
2013-01-29 07:08:00,45.4,43.5,30.22,West,277,0.0,0.0,93,0.00,,---,0.00,0.00,VWS V14.00,2013-01-29 12:08:00,
2013-01-29 07:13:00,45.4,43.5,30.22,West,277,0.0,0.0,93,0.00,,---,0.00,0.00,VWS V14.00,2013-01-29 12:13:00,
2013-01-29 07:18:00,45.4,43.5,30.22,West,277,0.0,0.0,93,0.00,,---,0.00,0.00,VWS V14.00,2013-01-29 12:18:00,
2013-01-29 07:23:00,45.2,43.0,30.22,West,277,0.0,0.0,92,0.00,,---,0.00,5.00,VWS V14.00,2013-01-29 12:23:00,
2013-01-29 07:28:00,45.2,43.3,30.23,West,277,0.0,0.0,93,0.00,,---,0.00,7.00,VWS V14.00,2013-01-29 12:28:00,
2013-01-29 07:33:00,45.2,43.3,30.23,West,277,0.0,0.0,93,0.00,,---,0.00,11.00,VWS V14.00,2013-01-29 12:33:00,
2013-01-29 07:38:00,45.2,43.3,30.23,West,277,0.0,0.0,93,0.00,,---,0.00,14.00,VWS V14.00,2013-01-29 12:38:00,
2013-01-29 07:43:00,45.4,43.5,30.23,SW,231,0.0,2.0,93,0.00,,---,0.00,18.00,VWS V14.00,2013-01-29 12:43:00,
2013-01-29 07:48:00,45.5,43.6,30.23,SW,231,0.0,2.0,93,0.00,,---,0.00,19.00,VWS V14.00,2013-01-29 12:48:00,
2013-01-29 07:53:00,45.5,43.6,30.23,SW,231,0.0,2.0,93,0.00,,---,0.00,23.00,VWS V14.00,2013-01-29 12:53:00,
2013-01-29 07:58:00,45.7,43.8,30.23,SW,231,0.0,2.0,93,0.00,,---,0.00,26.00,VWS V14.00,2013-01-29 12:58:00,
2013-01-29 08:03:00,45.7,43.8,30.23,SW,231,0.0,0.0,93,0.00,,---,0.00,28.00,VWS V14.00,2013-01-29 13:03:00,
2013-01-29 08:08:00,45.7,43.8,30.23,SW,231,0.0,0.0,93,0.00,,---,0.00,33.00,VWS V14.00,2013-01-29 13:08:00,
2013-01-29 08:13:00,45.8,44.2,30.23,SW,231,1.0,3.0,94,0.00,,---,0.00,35.00,VWS V14.00,2013-01-29 13:13:00,
2013-01-29 08:18:00,46.4,44.8,30.23,SW,231,0.0,3.0,94,0.00,,---,0.00,39.00,VWS V14.00,2013-01-29 13:18:00,
2013-01-29 08:23:00,46.8,45.2,30.23,SSW,207,4.0,4.0,94,0.00,,---,0.00,44.00,VWS V14.00,2013-01-29 13:23:00,
2013-01-29 08:28:00,47.3,45.7,30.23,SSW,207,0.0,4.0,94,0.00,,---,0.00,56.00,VWS V14.00,2013-01-29 13:28:00,
2013-01-29 08:33:00,47.4,45.8,30.23,SSW,207,0.0,0.0,94,0.00,,---,0.00,46.00,VWS V14.00,2013-01-29 13:33:00,
2013-01-29 08:38:00,47.7,46.1,30.23,SSW,207,0.0,0.0,94,0.00,,---,0.00,47.00,VWS V14.00,2013-01-29 13:38:00,
2013-01-29 08:43:00,48.0,46.4,30.23,SSW,207,0.0,3.0,94,0.00,,---,0.00,49.00,VWS V14.00,2013-01-29 13:43:00,
2013-01-29 08:48:00,48.5,46.9,30.23,SSW,207,2.0,3.0,94,0.00,,---,0.00,63.00,VWS V14.00,2013-01-29 13:48:00,
2013-01-29 08:53:00,49.2,47.3,30.23,SSW,211,0.0,3.0,93,0.00,,---,0.00,183.00,VWS V14.00,2013-01-29 13:53:00,
2013-01-29 08:58:00,49.9,47.4,30.23,SSW,205,2.0,3.0,91,0.00,,---,0.00,63.00,VWS V14.00,2013-01-29 13:58:00,
2013-01-29 09:03:00,50.4,47.6,30.23,WNW,294,0.0,4.0,90,0.00,,---,0.00,62.00,VWS V14.00,2013-01-29 14:03:00,
2013-01-29 09:08:00,50.8,48.0,30.23,SSW,202,1.0,5.0,90,0.00,,---,0.00,69.00,VWS V14.00,2013-01-29 14:08:00,
2013-01-29 09:13:00,51.3,48.2,30.22,South,191,0.0,5.0,89,0.00,,---,0.00,67.00,VWS V14.00,2013-01-29 14:13:00,
2013-01-29 09:18:00,52.2,48.8,30.22,West,259,1.0,5.0,88,0.00,,---,0.00,107.00,VWS V14.00,2013-01-29 14:18:00,
2013-01-29 09:23:00,53.3,48.9,30.22,West,279,1.0,5.0,85,0.00,,---,0.00,264.00,VWS V14.00,2013-01-29 14:23:00,
2013-01-29 09:28:00,54.2,49.5,30.22,West,279,0.0,5.0,84,0.00,,---,0.00,285.00,VWS V14.00,2013-01-29 14:28:00,
2013-01-29 09:33:00,55.0,49.9,30.22,West,276,1.0,3.0,83,0.00,,---,0.00,297.00,VWS V14.00,2013-01-29 14:33:00,
2013-01-29 09:38:00,56.0,49.9,30.22,West,276,1.0,3.0,80,0.00,,---,0.00,311.00,VWS V14.00,2013-01-29 14:38:00,
2013-01-29 09:43:00,56.7,50.6,30.22,West,276,0.0,3.0,80,0.00,,---,0.00,325.00,VWS V14.00,2013-01-29 14:43:00,
2013-01-29 09:48:00,57.6,51.1,30.22,West,276,1.0,3.0,79,0.00,,---,0.00,338.00,VWS V14.00,2013-01-29 14:48:00,
2013-01-29 09:53:00,58.3,51.5,30.22,West,276,3.0,3.0,78,0.00,,---,0.00,348.00,VWS V14.00,2013-01-29 14:53:00,
2013-01-29 09:58:00,58.7,51.9,30.22,WNW,290,2.0,5.0,78,0.00,,---,0.00,360.00,VWS V14.00,2013-01-29 14:58:00,
2013-01-29 10:03:00,59.0,51.8,30.22,WNW,294,1.0,4.0,77,0.00,,---,0.00,376.00,VWS V14.00,2013-01-29 15:03:00,
2013-01-29 10:08:00,59.5,51.9,30.22,SW,235,1.0,5.0,76,0.00,,---,0.00,387.00,VWS V14.00,2013-01-29 15:08:00,
2013-01-29 10:13:00,59.8,51.9,30.21,WNW,295,2.0,8.0,75,0.00,,---,0.00,388.00,VWS V14.00,2013-01-29 15:13:00,
2013-01-29 10:18:00,60.1,52.2,30.22,WSW,257,2.0,8.0,75,0.00,,---,0.00,410.00,VWS V14.00,2013-01-29 15:18:00,
2013-01-29 10:23:00,60.5,52.2,30.22,West,277,1.0,8.0,74,0.00,,---,0.00,417.00,VWS V14.00,2013-01-29 15:23:00,
2013-01-29 10:28:00,61.0,52.7,30.22,West,267,4.0,8.0,74,0.00,,---,0.00,424.00,VWS V14.00,2013-01-29 15:28:00,
2013-01-29 10:33:00,61.6,52.9,30.22,SSW,212,1.0,4.0,73,0.00,,---,0.00,441.00,VWS V14.00,2013-01-29 15:33:00,
2013-01-29 10:37:00,62.1,53.3,30.22,WSW,246,5.0,6.0,73,0.00,,---,0.00,441.00,VWS V14.00,2013-01-29 15:37:00,
2013-01-29 10:42:00,62.7,53.9,30.22,NW,315,2.0,6.0,73,0.00,,---,0.00,455.00,VWS V14.00,2013-01-29 15:42:00,
2013-01-29 10:47:00,63.4,54.2,30.22,WSW,246,2.0,6.0,72,0.00,,---,0.00,466.00,VWS V14.00,2013-01-29 15:47:00,
2013-01-29 10:53:00,64.2,54.6,30.22,WNW,294,0.0,6.0,71,0.00,,---,0.00,478.00,VWS V14.00,2013-01-29 15:53:00,
2013-01-29 10:58:00,64.5,54.5,30.22,SW,219,1.0,6.0,70,0.00,,---,0.00,489.00,VWS V14.00,2013-01-29 15:58:00,
2013-01-29 11:03:00,65.0,55.0,30.22,WSW,250,2.0,3.0,70,0.00,,---,0.00,492.00,VWS V14.00,2013-01-29 16:03:00,
2013-01-29 11:08:00,66.0,55.5,30.21,WSW,252,1.0,3.0,69,0.00,,---,0.00,503.00,VWS V14.00,2013-01-29 16:08:00,
2013-01-29 11:13:00,66.1,55.7,30.21,SW,220,1.0,8.0,69,0.00,,---,0.00,510.00,VWS V14.00,2013-01-29 16:13:00,
2013-01-29 11:18:00,66.4,55.5,30.21,West,272,1.0,8.0,68,0.00,,---,0.00,515.00,VWS V14.00,2013-01-29 16:18:00,
2013-01-29 11:22:00,66.6,55.7,30.20,South,190,4.0,8.0,68,0.00,,---,0.00,522.00,VWS V14.00,2013-01-29 16:22:00,
2013-01-29 11:27:00,67.1,55.8,30.20,SW,229,4.0,8.0,67,0.00,,---,0.00,531.00,VWS V14.00,2013-01-29 16:27:00,
2013-01-29 11:33:00,67.6,55.8,30.20,West,278,3.0,7.0,66,0.00,,---,0.00,540.00,VWS V14.00,2013-01-29 16:33:00,
2013-01-29 11:37:00,68.4,56.2,30.20,North,5,2.0,7.0,65,0.00,,---,0.00,548.00,VWS V14.00,2013-01-29 16:37:00,
2013-01-29 11:42:00,68.8,56.1,30.19,WSW,254,5.0,7.0,64,0.00,,---,0.00,557.00,VWS V14.00,2013-01-29 16:42:00,
2013-01-29 11:47:00,68.8,55.7,30.19,SSW,198,5.0,7.0,63,0.00,,---,0.00,534.00,VWS V14.00,2013-01-29 16:47:00,
2013-01-29 11:52:00,68.4,55.8,30.19,West,265,1.0,11.0,64,0.00,,---,0.00,554.00,VWS V14.00,2013-01-29 16:52:00,
2013-01-29 11:57:00,69.3,56.2,30.18,South,176,4.0,11.0,63,0.00,,---,0.00,566.00,VWS V14.00,2013-01-29 16:57:00,
2013-01-29 12:03:00,69.6,56.5,30.18,WSW,252,1.0,2.0,63,0.00,,---,0.00,575.00,VWS V14.00,2013-01-29 17:03:00,
2013-01-29 12:08:00,70.3,56.2,30.18,WNW,297,0.0,5.0,61,0.00,,---,0.00,568.00,VWS V14.00,2013-01-29 17:08:00,
2013-01-29 12:13:00,70.1,55.6,30.17,WNW,284,3.0,6.0,60,0.00,,---,0.00,577.00,VWS V14.00,2013-01-29 17:13:00,
2013-01-29 12:18:00,70.3,56.7,30.17,WNW,286,3.0,6.0,62,0.00,,---,0.00,575.00,VWS V14.00,2013-01-29 17:18:00,
2013-01-29 12:23:00,70.1,55.6,30.16,SW,227,3.0,8.0,60,0.00,,---,0.00,541.00,VWS V14.00,2013-01-29 17:23:00,
2013-01-29 12:28:00,70.6,56.1,30.16,WSW,254,2.0,9.0,60,0.00,,---,0.00,571.00,VWS V14.00,2013-01-29 17:28:00,
2013-01-29 12:33:00,70.8,56.7,30.15,SW,232,6.0,6.0,61,0.00,,---,0.00,508.00,VWS V14.00,2013-01-29 17:33:00,
2013-01-29 12:38:00,71.6,56.5,30.15,NW,305,0.0,6.0,59,0.00,,---,0.00,510.00,VWS V14.00,2013-01-29 17:38:00,
2013-01-29 12:43:00,72.1,56.5,30.14,South,191,5.0,6.0,58,0.00,,---,0.00,615.00,VWS V14.00,2013-01-29 17:43:00,
2013-01-29 12:48:00,72.3,56.7,30.14,NW,304,2.0,6.0,58,0.00,,---,0.00,589.00,VWS V14.00,2013-01-29 17:48:00,
2013-01-29 12:53:00,72.7,56.6,30.14,West,279,0.0,6.0,57,0.00,,---,0.00,580.00,VWS V14.00,2013-01-29 17:53:00,
2013-01-29 12:58:00,72.5,56.4,30.14,SW,219,1.0,6.0,57,0.00,,---,0.00,490.00,VWS V14.00,2013-01-29 17:58:00,
2013-01-29 13:03:00,72.5,56.9,30.13,WNW,290,0.0,3.0,58,0.00,,---,0.00,515.00,VWS V14.00,2013-01-29 18:03:00,
2013-01-29 13:08:00,72.7,56.6,30.13,West,264,0.0,6.0,57,0.00,,---,0.00,515.00,VWS V14.00,2013-01-29 18:08:00,
2013-01-29 13:13:00,73.0,56.4,30.13,WNW,289,1.0,9.0,56,0.00,,---,0.00,490.00,VWS V14.00,2013-01-29 18:13:00,
2013-01-29 13:18:00,72.5,55.9,30.13,WSW,253,6.0,9.0,56,0.00,,---,0.00,325.00,VWS V14.00,2013-01-29 18:18:00,
2013-01-29 13:23:00,71.8,55.8,30.12,West,273,2.0,9.0,57,0.00,,---,0.00,401.00,VWS V14.00,2013-01-29 18:23:00,
2013-01-29 13:28:00,72.0,56.0,30.12,West,281,0.0,9.0,57,0.00,,---,0.00,390.00,VWS V14.00,2013-01-29 18:28:00,
2013-01-29 13:33:00,72.0,55.5,30.12,WSW,253,0.0,8.0,56,0.00,,---,0.00,439.00,VWS V14.00,2013-01-29 18:33:00,
2013-01-29 13:38:00,72.0,56.0,30.12,WNW,296,1.0,8.0,57,0.00,,---,0.00,265.00,VWS V14.00,2013-01-29 18:38:00,
2013-01-29 13:43:00,71.8,55.8,30.12,West,277,0.0,10.0,57,0.00,,---,0.00,292.00,VWS V14.00,2013-01-29 18:43:00,
2013-01-29 13:48:00,72.0,56.0,30.12,West,273,4.0,10.0,57,0.00,,---,0.00,320.00,VWS V14.00,2013-01-29 18:48:00,
2013-01-29 13:54:00,72.1,55.6,30.12,West,269,0.0,10.0,56,0.00,,---,0.00,323.00,VWS V14.00,2013-01-29 18:54:00,
2013-01-29 13:59:00,72.3,56.2,30.11,SW,215,3.0,10.0,57,0.00,,---,0.00,338.00,VWS V14.00,2013-01-29 18:59:00,
2013-01-29 14:04:00,72.8,56.7,30.11,WNW,296,1.0,3.0,57,0.00,,---,0.00,596.00,VWS V14.00,2013-01-29 19:04:00,
2013-01-29 14:09:00,73.5,56.4,30.11,NW,311,1.0,8.0,55,0.00,,---,0.00,552.00,VWS V14.00,2013-01-29 19:09:00,
2013-01-29 14:14:00,73.3,55.7,30.11,WNW,297,0.0,8.0,54,0.00,,---,0.00,561.00,VWS V14.00,2013-01-29 19:14:00,
2013-01-29 14:19:00,73.9,55.7,30.11,WSW,255,3.0,8.0,53,0.00,,---,0.00,510.00,VWS V14.00,2013-01-29 19:19:00,
2013-01-29 14:24:00,73.5,55.3,30.11,South,183,3.0,8.0,53,0.00,,---,0.00,503.00,VWS V14.00,2013-01-29 19:24:00,
2013-01-29 14:30:00,73.5,54.8,30.11,SSE,156,11.0,16.0,52,0.00,,---,0.00,517.00,VWS V14.00,2013-01-29 19:30:00,
2013-01-29 14:35:00,73.3,55.2,30.11,West,271,1.0,10.0,53,0.00,,---,0.00,415.00,VWS V14.00,2013-01-29 19:35:00,
2013-01-29 14:40:00,73.7,55.0,30.11,WSW,257,2.0,10.0,52,0.00,,---,0.00,450.00,VWS V14.00,2013-01-29 19:40:00,
2013-01-29 14:45:00,73.9,55.2,30.11,NNW,329,0.0,10.0,52,0.00,,---,0.00,425.00,VWS V14.00,2013-01-29 19:45:00,
2013-01-29 14:50:00,73.7,55.5,30.11,WNW,292,1.0,10.0,53,0.00,,---,0.00,408.00,VWS V14.00,2013-01-29 19:50:00,
2013-01-29 14:55:00,73.5,55.3,30.11,WNW,292,0.0,10.0,53,0.00,,---,0.00,394.00,VWS V14.00,2013-01-29 19:55:00,
2013-01-29 14:58:00,73.9,56.2,30.11,West,279,0.0,10.0,54,0.00,,---,0.00,396.00,VWS V14.00,2013-01-29 19:58:00,
2013-01-29 15:03:00,73.5,54.8,30.11,SSW,201,0.0,5.0,52,0.00,,---,0.00,301.00,VWS V14.00,2013-01-29 20:03:00,
2013-01-29 15:08:00,73.7,55.0,30.10,WSW,242,2.0,6.0,52,0.00,,---,0.00,253.00,VWS V14.00,2013-01-29 20:08:00,
2013-01-29 15:13:00,74.0,55.8,30.10,ESE,114,0.0,9.0,53,0.00,,---,0.00,260.00,VWS V14.00,2013-01-29 20:13:00,
2013-01-29 15:18:00,73.9,54.7,30.10,SSW,194,7.0,10.0,51,0.00,,---,0.00,311.00,VWS V14.00,2013-01-29 20:18:00,
2013-01-29 15:23:00,73.7,54.5,30.10,SSW,192,2.0,10.0,51,0.00,,---,0.00,185.00,VWS V14.00,2013-01-29 20:23:00,
2013-01-29 15:28:00,73.5,54.3,30.10,South,182,4.0,13.0,51,0.00,,---,0.00,323.00,VWS V14.00,2013-01-29 20:28:00,
2013-01-29 15:33:00,73.7,54.5,30.10,South,169,4.0,12.0,51,0.00,,---,0.00,237.00,VWS V14.00,2013-01-29 20:33:00,
2013-01-29 15:38:00,73.7,54.5,30.10,SSW,210,1.0,12.0,51,0.00,,---,0.00,227.00,VWS V14.00,2013-01-29 20:38:00,
2013-01-29 15:43:00,73.7,54.5,30.10,WSW,242,3.0,12.0,51,0.00,,---,0.00,206.00,VWS V14.00,2013-01-29 20:43:00,
2013-01-29 15:48:00,73.7,54.5,30.10,SSW,196,0.0,12.0,51,0.00,,---,0.00,227.00,VWS V14.00,2013-01-29 20:48:00,
2013-01-29 15:53:00,73.7,53.9,30.10,West,279,0.0,12.0,50,0.00,,---,0.00,204.00,VWS V14.00,2013-01-29 20:53:00,
2013-01-29 15:58:00,73.9,53.6,30.10,WSW,248,2.0,12.0,49,0.00,,---,0.00,229.00,VWS V14.00,2013-01-29 20:58:00,
2013-01-29 16:03:00,73.7,53.9,30.10,SW,227,0.0,4.0,50,0.00,,---,0.00,167.00,VWS V14.00,2013-01-29 21:03:00,
2013-01-29 16:08:00,73.7,53.9,30.10,South,190,2.0,6.0,50,0.00,,---,0.00,162.00,VWS V14.00,2013-01-29 21:08:00,
2013-01-29 16:13:00,73.7,53.9,30.10,SSW,202,2.0,12.0,50,0.00,,---,0.00,158.00,VWS V14.00,2013-01-29 21:13:00,
2013-01-29 16:18:00,73.5,53.7,30.10,SSW,208,2.0,12.0,50,0.00,,---,0.00,167.00,VWS V14.00,2013-01-29 21:18:00,
2013-01-29 16:23:00,73.2,53.5,30.10,ENE,74,3.0,12.0,50,0.00,,---,0.00,70.00,VWS V14.00,2013-01-29 21:23:00,
2013-01-29 16:28:00,73.2,54.0,30.09,WSW,253,0.0,12.0,51,0.00,,---,0.00,93.00,VWS V14.00,2013-01-29 21:28:00,
2013-01-29 16:33:00,73.0,53.8,30.09,NNW,328,0.0,4.0,51,0.00,,---,0.00,70.00,VWS V14.00,2013-01-29 21:33:00,
2013-01-29 16:38:00,72.8,53.6,30.09,South,174,0.0,5.0,51,0.00,,---,0.00,67.00,VWS V14.00,2013-01-29 21:38:00,
2013-01-29 16:43:00,72.7,54.1,30.09,SSW,209,1.0,5.0,52,0.00,,---,0.00,46.00,VWS V14.00,2013-01-29 21:43:00,
2013-01-29 16:48:00,72.5,54.4,30.09,SSW,207,2.0,7.0,53,0.00,,---,0.00,42.00,VWS V14.00,2013-01-29 21:48:00,
2013-01-29 16:53:00,72.1,54.0,30.09,South,179,4.0,8.0,53,0.00,,---,0.00,39.00,VWS V14.00,2013-01-29 21:53:00,
2013-01-29 16:58:00,72.0,54.5,30.09,South,175,3.0,8.0,54,0.00,,---,0.00,53.00,VWS V14.00,2013-01-29 21:58:00,
2013-01-29 17:03:00,71.8,54.3,30.09,SSW,202,3.0,5.0,54,0.00,,---,0.00,28.00,VWS V14.00,2013-01-29 22:03:00,
2013-01-29 17:08:00,71.5,54.5,30.09,South,186,0.0,5.0,55,0.00,,---,0.00,23.00,VWS V14.00,2013-01-29 22:08:00,
2013-01-29 17:13:00,71.3,54.8,30.09,South,175,0.0,5.0,56,0.00,,---,0.00,18.00,VWS V14.00,2013-01-29 22:13:00,
2013-01-29 17:18:00,70.9,54.9,30.09,South,175,2.0,5.0,57,0.00,,---,0.00,12.00,VWS V14.00,2013-01-29 22:18:00,
2013-01-29 17:23:00,70.6,54.6,30.09,SW,220,0.0,5.0,57,0.00,,---,0.00,9.00,VWS V14.00,2013-01-29 22:23:00,
2013-01-29 17:28:00,70.3,54.4,30.09,SSW,193,0.0,5.0,57,0.00,,---,0.00,7.00,VWS V14.00,2013-01-29 22:28:00,
2013-01-29 17:33:00,70.3,54.8,30.08,SSW,193,0.0,0.0,58,0.00,,---,0.00,5.00,VWS V14.00,2013-01-29 22:33:00,
2013-01-29 17:38:00,70.1,54.7,30.08,SSW,193,0.0,2.0,58,0.00,,---,0.00,0.00,VWS V14.00,2013-01-29 22:38:00,
2013-01-29 17:43:00,69.8,54.8,30.08,SSW,193,2.0,3.0,59,0.00,,---,0.00,0.00,VWS V14.00,2013-01-29 22:43:00,
2013-01-29 17:48:00,69.4,54.9,30.08,SSW,193,0.0,3.0,60,0.00,,---,0.00,0.00,VWS V14.00,2013-01-29 22:48:00,
2013-01-29 17:53:00,69.3,54.8,30.08,SSW,193,1.0,3.0,60,0.00,,---,0.00,0.00,VWS V14.00,2013-01-29 22:53:00,
2013-01-29 17:58:00,68.9,54.9,30.08,SSW,193,0.0,4.0,61,0.00,,---,0.00,0.00,VWS V14.00,2013-01-29 22:58:00,
2013-01-29 18:03:00,68.6,54.6,30.08,SSW,193,2.0,3.0,61,0.00,,---,0.00,0.00,VWS V14.00,2013-01-29 23:03:00,
2013-01-29 18:08:00,68.3,54.8,30.08,SSE,154,2.0,4.0,62,0.00,,---,0.00,0.00,VWS V14.00,2013-01-29 23:08:00,
2013-01-29 18:13:00,68.1,54.6,30.08,South,176,1.0,4.0,62,0.00,,---,0.00,0.00,VWS V14.00,2013-01-29 23:13:00,
2013-01-29 18:18:00,67.8,54.8,30.08,South,190,3.0,4.0,63,0.00,,---,0.00,0.00,VWS V14.00,2013-01-29 23:18:00,
2013-01-29 18:23:00,67.6,55.0,30.08,South,171,4.0,5.0,64,0.00,,---,0.00,0.00,VWS V14.00,2013-01-29 23:23:00,
2013-01-29 18:28:00,67.4,54.8,30.08,SSW,207,4.0,5.0,64,0.00,,---,0.00,0.00,VWS V14.00,2013-01-29 23:28:00,
2013-01-29 18:33:00,67.3,55.2,30.08,SSW,203,1.0,5.0,65,0.00,,---,0.00,0.00,VWS V14.00,2013-01-29 23:33:00,
2013-01-29 18:38:00,67.1,55.0,30.08,South,182,4.0,6.0,65,0.00,,---,0.00,0.00,VWS V14.00,2013-01-29 23:38:00,
2013-01-29 18:43:00,67.1,55.0,30.08,SSW,198,3.0,6.0,65,0.00,,---,0.00,0.00,VWS V14.00,2013-01-29 23:43:00,
2013-01-29 18:48:00,66.9,55.2,30.08,South,179,0.0,6.0,66,0.00,,---,0.00,0.00,VWS V14.00,2013-01-29 23:48:00,
2013-01-29 18:53:00,66.8,55.1,30.09,South,191,1.0,6.0,66,0.00,,---,0.00,0.00,VWS V14.00,2013-01-29 23:53:00,
2013-01-29 18:58:00,66.6,55.3,30.09,South,176,3.0,6.0,67,0.00,,---,0.00,0.00,VWS V14.00,2013-01-29 23:58:00,
2013-01-29 19:03:00,66.6,55.3,30.09,SSE,162,3.0,6.0,67,0.00,,---,0.00,0.00,VWS V14.00,2013-01-30 00:03:00,
2013-01-29 19:08:00,66.6,55.3,30.09,South,190,1.0,6.0,67,0.00,,---,0.00,0.00,VWS V14.00,2013-01-30 00:08:00,
2013-01-29 19:13:00,66.4,55.1,30.09,SSW,194,3.0,6.0,67,0.00,,---,0.00,0.00,VWS V14.00,2013-01-30 00:13:00,
2013-01-29 19:18:00,66.3,55.4,30.09,SSE,165,1.0,7.0,68,0.00,,---,0.00,0.00,VWS V14.00,2013-01-30 00:18:00,
2013-01-29 19:23:00,66.3,55.4,30.08,South,177,2.0,7.0,68,0.00,,---,0.00,0.00,VWS V14.00,2013-01-30 00:23:00,
2013-01-29 19:28:00,66.0,55.5,30.08,South,182,1.0,7.0,69,0.00,,---,0.00,0.00,VWS V14.00,2013-01-30 00:28:00,
2013-01-29 19:33:00,66.0,55.5,30.08,South,172,5.0,7.0,69,0.00,,---,0.00,0.00,VWS V14.00,2013-01-30 00:33:00,
2013-01-29 19:38:00,65.8,55.8,30.08,SSW,197,3.0,7.0,70,0.00,,---,0.00,0.00,VWS V14.00,2013-01-30 00:38:00,
2013-01-29 19:43:00,65.6,55.6,30.09,SW,218,5.0,7.0,70,0.00,,---,0.00,0.00,VWS V14.00,2013-01-30 00:43:00,
2013-01-29 19:48:00,65.6,55.6,30.09,South,182,9.0,9.0,70,0.00,,---,0.00,0.00,VWS V14.00,2013-01-30 00:48:00,
2013-01-29 19:53:00,65.6,55.6,30.08,South,190,4.0,9.0,70,0.00,,---,0.00,0.00,VWS V14.00,2013-01-30 00:53:00,
2013-01-29 19:58:00,65.5,55.9,30.08,SW,227,4.0,9.0,71,0.00,,---,0.00,0.00,VWS V14.00,2013-01-30 00:58:00,
2013-01-29 20:03:00,65.5,55.9,30.09,SSE,161,3.0,5.0,71,0.00,,---,0.00,0.00,VWS V14.00,2013-01-30 01:03:00,
2013-01-29 20:08:00,65.3,55.7,30.09,South,179,1.0,9.0,71,0.00,,---,0.00,0.00,VWS V14.00,2013-01-30 01:08:00,
2013-01-29 20:13:00,65.2,56.0,30.09,South,188,4.0,9.0,72,0.00,,---,0.00,0.00,VWS V14.00,2013-01-30 01:13:00,
2013-01-29 20:18:00,65.0,55.8,30.09,South,184,2.0,9.0,72,0.00,,---,0.00,0.00,VWS V14.00,2013-01-30 01:18:00,
2013-01-29 20:23:00,64.8,56.0,30.09,SW,220,5.0,9.0,73,0.00,,---,0.00,0.00,VWS V14.00,2013-01-30 01:23:00,
2013-01-29 20:28:00,64.7,55.9,30.09,South,180,3.0,9.0,73,0.00,,---,0.00,0.00,VWS V14.00,2013-01-30 01:28:00,
2013-01-29 20:33:00,64.5,55.7,30.09,South,176,3.0,7.0,73,0.00,,---,0.00,0.00,VWS V14.00,2013-01-30 01:33:00,
2013-01-29 20:38:00,64.5,56.0,30.09,South,176,3.0,8.0,74,0.00,,---,0.00,0.00,VWS V14.00,2013-01-30 01:38:00,
2013-01-29 20:43:00,64.3,55.8,30.09,SSE,156,1.0,8.0,74,0.00,,---,0.00,0.00,VWS V14.00,2013-01-30 01:43:00,
2013-01-29 20:48:00,64.2,56.1,30.08,SSE,162,5.0,8.0,75,0.00,,---,0.00,0.00,VWS V14.00,2013-01-30 01:48:00,
2013-01-29 20:53:00,64.2,56.1,30.08,South,190,4.0,8.0,75,0.00,,---,0.00,0.00,VWS V14.00,2013-01-30 01:53:00,
2013-01-29 20:58:00,64.2,56.1,30.08,SSE,168,1.0,8.0,75,0.00,,---,0.00,0.00,VWS V14.00,2013-01-30 01:58:00,
2013-01-29 21:03:00,64.0,55.9,30.08,SSE,157,2.0,5.0,75,0.00,,---,0.00,0.00,VWS V14.00,2013-01-30 02:03:00,
2013-01-29 21:08:00,63.9,56.2,30.07,SSE,154,1.0,7.0,76,0.00,,---,0.00,0.00,VWS V14.00,2013-01-30 02:08:00,
2013-01-29 21:13:00,63.7,56.0,30.07,South,187,3.0,7.0,76,0.00,,---,0.00,0.00,VWS V14.00,2013-01-30 02:13:00,
2013-01-29 21:18:00,63.5,55.8,30.07,SSE,151,0.0,7.0,76,0.00,,---,0.00,0.00,VWS V14.00,2013-01-30 02:18:00,
2013-01-29 21:23:00,63.4,56.1,30.07,SSW,200,5.0,7.0,77,0.00,,---,0.00,0.00,VWS V14.00,2013-01-30 02:23:00,
2013-01-29 21:28:00,63.2,56.2,30.08,SSW,197,0.0,7.0,78,0.00,,---,0.00,0.00,VWS V14.00,2013-01-30 02:28:00,
2013-01-29 21:33:00,63.2,56.2,30.08,South,177,1.0,5.0,78,0.00,,---,0.00,0.00,VWS V14.00,2013-01-30 02:33:00,
2013-01-29 21:38:00,63.2,56.2,30.08,South,173,3.0,6.0,78,0.00,,---,0.00,0.00,VWS V14.00,2013-01-30 02:38:00,
2013-01-29 21:43:00,63.1,56.1,30.08,South,175,0.0,6.0,78,0.00,,---,0.00,0.00,VWS V14.00,2013-01-30 02:43:00,
2013-01-29 21:48:00,62.9,55.9,30.08,SSW,205,2.0,6.0,78,0.00,,---,0.00,0.00,VWS V14.00,2013-01-30 02:48:00,
2013-01-29 21:53:00,62.9,56.3,30.08,ESE,114,1.0,7.0,79,0.00,,---,0.00,0.00,VWS V14.00,2013-01-30 02:53:00,
2013-01-29 21:58:00,62.7,56.1,30.08,South,173,2.0,7.0,79,0.00,,---,0.00,0.00,VWS V14.00,2013-01-30 02:58:00,
2013-01-29 22:03:00,62.7,56.1,30.07,ESE,115,5.0,6.0,79,0.00,,---,0.00,0.00,VWS V14.00,2013-01-30 03:03:00,
2013-01-29 22:08:00,62.6,56.3,30.07,South,189,5.0,6.0,80,0.00,,---,0.00,0.00,VWS V14.00,2013-01-30 03:08:00,
2013-01-29 22:13:00,62.6,56.3,30.07,SSW,197,2.0,9.0,80,0.00,,---,0.00,0.00,VWS V14.00,2013-01-30 03:13:00,
2013-01-29 22:18:00,62.6,56.3,30.07,SSW,209,1.0,9.0,80,0.00,,---,0.00,0.00,VWS V14.00,2013-01-30 03:18:00,
2013-01-29 22:23:00,62.4,56.2,30.07,SSE,153,0.0,9.0,80,0.00,,---,0.00,0.00,VWS V14.00,2013-01-30 03:23:00,
2013-01-29 22:28:00,62.4,56.2,30.07,South,184,2.0,9.0,80,0.00,,---,0.00,0.00,VWS V14.00,2013-01-30 03:28:00,
2013-01-29 22:33:00,62.4,56.5,30.07,South,185,6.0,7.0,81,0.00,,---,0.00,0.00,VWS V14.00,2013-01-30 03:33:00,
2013-01-29 22:38:00,62.4,56.5,30.07,SSW,199,3.0,7.0,81,0.00,,---,0.00,0.00,VWS V14.00,2013-01-30 03:38:00,
2013-01-29 22:43:00,62.4,56.5,30.08,South,191,3.0,7.0,81,0.00,,---,0.00,0.00,VWS V14.00,2013-01-30 03:43:00,
2013-01-29 22:48:00,62.4,56.5,30.08,SW,229,0.0,7.0,81,0.00,,---,0.00,0.00,VWS V14.00,2013-01-30 03:48:00,
2013-01-29 22:53:00,62.3,56.4,30.09,SW,229,0.0,7.0,81,0.00,,---,0.00,0.00,VWS V14.00,2013-01-30 03:53:00,
2013-01-29 22:58:00,62.1,56.5,30.09,South,177,1.0,7.0,82,0.00,,---,0.00,0.00,VWS V14.00,2013-01-30 03:58:00,
2013-01-29 23:03:00,62.0,56.8,30.09,South,190,2.0,4.0,83,0.00,,---,0.00,0.00,VWS V14.00,2013-01-30 04:03:00,
2013-01-29 23:08:00,62.0,56.8,30.09,South,190,0.0,4.0,83,0.00,,---,0.00,0.00,VWS V14.00,2013-01-30 04:08:00,
2013-01-29 23:13:00,62.0,56.8,30.09,South,188,3.0,6.0,83,0.00,,---,0.00,0.00,VWS V14.00,2013-01-30 04:13:00,
2013-01-29 23:18:00,62.1,56.9,30.08,SSW,195,3.0,6.0,83,0.00,,---,0.00,0.00,VWS V14.00,2013-01-30 04:18:00,
2013-01-29 23:23:00,62.1,56.9,30.08,South,177,0.0,6.0,83,0.00,,---,0.00,0.00,VWS V14.00,2013-01-30 04:23:00,
2013-01-29 23:28:00,62.3,57.1,30.08,South,182,2.0,6.0,83,0.00,,---,0.00,0.00,VWS V14.00,2013-01-30 04:28:00,
2013-01-29 23:33:00,62.1,56.9,30.07,South,189,2.0,6.0,83,0.00,,---,0.00,0.00,VWS V14.00,2013-01-30 04:33:00,
2013-01-29 23:38:00,62.1,56.9,30.07,South,188,2.0,6.0,83,0.00,,---,0.00,0.00,VWS V14.00,2013-01-30 04:38:00,
2013-01-29 23:43:00,62.1,56.9,30.07,SSW,209,4.0,6.0,83,0.00,,---,0.00,0.00,VWS V14.00,2013-01-30 04:43:00,
2013-01-29 23:48:00,62.1,57.2,30.07,South,178,4.0,7.0,84,0.00,,---,0.00,0.00,VWS V14.00,2013-01-30 04:48:00,
2013-01-29 23:53:00,62.1,57.2,30.06,South,184,2.0,7.0,84,0.00,,---,0.00,0.00,VWS V14.00,2013-01-30 04:53:00,
2013-01-29 23:58:00,62.1,57.2,30.06,SW,224,5.0,7.0,84,0.00,,---,0.00,0.00,VWS V14.00,2013-01-30 04:58:00,